Location: Bosdarros
(43.2167°N, 0.3667°W)
Time: 08:04:56
(UTC+00:00)

FALCON 9 DEB - Pass Details

Date: 22 April 2021
Orbit: 369 x 385 km, 53.0° (Epoch: 07 May)

Event Time Altitude Azimuth Distance (km) Brightness Sun altitude
Rises 19:38:17 0° 215° (SW) 2,206 6.8 -8.5°
Reaches altitude 10° 19:40:23 10° 207° (SSW) 1,360 5.6 -8.9°
Maximum altitude 19:43:13 37° 138° (SE) 596 3.3 -9.3°
Drops below altitude 10° 19:46:04 10° 68° (ENE) 1,368 5.3 -9.8°
Enters shadow 19:47:19 - 63° (ENE) 1,869 6.0 -10.0°
